Change the Weather History Date:

Sunday, January 13, 2013

  Actual Average Record
Temperature  
Mean Temperature 24 °F -  
Max Temperature 37 °F 53 °F 66 °F (2007)
Min Temperature 11 °F 31 °F 11 °F (2013)
Degree Days  
Heating Degree Days 41    
Moisture  
Dew Point 5 °F    
Average Humidity 46    
Maximum Humidity 77    
Minimum Humidity 24    
Precipitation  
Precipitation 0.00 in - - ()
Sea Level Pressure  
Sea Level Pressure 30.02 in    
Wind  
Wind Speed 4 mph (ESE)    
Max Wind Speed 10 mph    
Max Gust Speed -    
Visibility 10 miles    
Events      
Averages and records for this station are not official NWS values.
T = Trace of Precipitation, MM = Missing Value Source: NWS Daily Summary

Daily Weather History Graph

Daily Weather History Graph

Search for Another Location

Airport or City:

Trip Planner

Search our weather history database for the weather conditions in past years. The results will help you decide how hot, cold, wet, or windy it might be!

Date:

Astronomy

Jan. 13, 2013 Rise Set
Actual Time 7:09 AM MST 5:23 PM MST
Civil Twilight 6:42 AM MST 5:50 PM MST
Nautical Twilight 6:12 AM MST 6:20 PM MST
Astronomical Twilight 5:43 AM MST 6:50 PM MST
Moon 8:19 AM MST (1/13) 7:54 PM MST (1/13)
Length of Visible Light 11h 07m
Length of Day
10h 14m
Waxing Crescent, 5% of the Moon is Illuminated
Jan 13
Waxing Crescent
Jan 18
First Quarter
Jan 26
Full
Feb 3
Last Quarter
Feb 10
New

Hourly Weather History & Observations

Time (MST) Temp. Windchill Dew Point Humidity Pressure Visibility Wind Dir Wind Speed Gust Speed Precip Events Conditions
12:15 AM 18.0 °F 8.7 °F 3.4 °F 53% 30.05 in 10.0 mi North 6.9 mph - N/A   Clear
12:35 AM 16.7 °F 9.6 °F 3.6 °F 56% 30.05 in 10.0 mi North 4.6 mph - N/A   Clear
12:55 AM 18.7 °F 9.5 °F 4.1 °F 53% 30.05 in 10.0 mi NNE 6.9 mph - N/A   Clear
1:15 AM 19.4 °F 12.8 °F 4.1 °F 52% 30.06 in 10.0 mi NNE 4.6 mph - N/A   Clear
1:35 AM 19.4 °F 11.5 °F 4.6 °F 53% 30.06 in 10.0 mi NE 5.8 mph - N/A   Clear
1:55 AM 19.6 °F 10.6 °F 7.2 °F 59% 30.05 in 10.0 mi NE 6.9 mph - N/A   Clear
2:15 AM 19.8 °F 10.8 °F 7.5 °F 59% 30.05 in 10.0 mi NNE 6.9 mph - N/A   Clear
2:35 AM 16.7 °F - 6.3 °F 64% 30.06 in 10.0 mi Calm Calm - N/A   Clear
2:55 AM 15.8 °F - 5.4 °F 63% 30.06 in 10.0 mi Calm Calm - N/A   Clear
3:15 AM 14.7 °F - 4.8 °F 65% 30.06 in 10.0 mi Calm Calm - N/A   Clear
3:35 AM 13.6 °F - 4.6 °F 67% 30.06 in 10.0 mi Calm Calm - N/A   Clear
3:55 AM 13.5 °F 7.5 °F 4.6 °F 68% 30.05 in 10.0 mi WNW 3.5 mph - N/A   Clear
4:15 AM 13.5 °F 4.4 °F 4.8 °F 68% 30.05 in 10.0 mi NNW 5.8 mph - N/A   Clear
4:35 AM 13.5 °F 3.3 °F 5.5 °F 71% 30.04 in 10.0 mi NNW 6.9 mph - N/A   Clear
4:55 AM 13.8 °F 4.9 °F 5.9 °F 71% 30.04 in 10.0 mi NNW 5.8 mph - N/A   Clear
5:15 AM 15.3 °F 9.6 °F 6.1 °F 67% 30.05 in 10.0 mi NW 3.5 mph - N/A   Clear
5:35 AM 13.8 °F - 5.9 °F 71% 30.06 in 10.0 mi Calm Calm - N/A   Clear
5:55 AM 12.2 °F 2.9 °F 5.5 °F 75% 30.06 in 10.0 mi NNW 5.8 mph - N/A   Clear
6:15 AM 12.0 °F 2.7 °F 5.5 °F 75% 30.07 in 10.0 mi NW 5.8 mph - N/A   Clear
6:35 AM 12.0 °F 1.5 °F 5.5 °F 75% 30.07 in 10.0 mi NW 6.9 mph - N/A   Clear
6:55 AM 11.7 °F 2.3 °F 5.7 °F 77% 30.07 in 10.0 mi NNW 5.8 mph - N/A   Clear
7:15 AM 12.4 °F 6.3 °F 6.3 °F 76% 30.08 in 10.0 mi NW 3.5 mph - N/A   Clear
7:35 AM 14.2 °F 6.7 °F 7.7 °F 75% 30.09 in 10.0 mi NW 4.6 mph - N/A   Clear
7:55 AM 18.3 °F 13.1 °F 9.5 °F 68% 30.09 in 10.0 mi NW 3.5 mph - N/A   Clear
8:15 AM 21.0 °F - 10.2 °F 63% 30.09 in 10.0 mi Calm Calm - N/A   Clear
8:35 AM 24.3 °F - 11.1 °F 57% 30.10 in 10.0 mi Calm Calm - N/A   Clear
8:55 AM 26.1 °F 19.4 °F 10.0 °F 51% 30.11 in 10.0 mi ESE 5.8 mph - N/A   Clear
9:15 AM 23.9 °F 18.0 °F 9.3 °F 54% 30.11 in 10.0 mi ESE 4.6 mph - N/A   Clear
9:35 AM 26.1 °F 21.9 °F 9.1 °F 49% 30.11 in 10.0 mi ESE 3.5 mph - N/A   Clear
9:55 AM 28.2 °F 23.1 °F 8.4 °F 43% 30.12 in 10.0 mi ESE 4.6 mph - N/A   Clear
10:15 AM 28.9 °F 25.2 °F 7.9 °F 41% 30.11 in 10.0 mi ESE 3.5 mph - N/A   Clear
10:35 AM 31.5 °F 25.8 °F 7.2 °F 36% 30.09 in 10.0 mi SE 5.8 mph - N/A   Clear
10:55 AM 32.0 °F 24.2 °F 6.8 °F 35% 30.08 in 10.0 mi SSE 9.2 mph - N/A   Clear
11:15 AM 33.4 °F 25.4 °F 6.4 °F 32% 30.07 in 10.0 mi SSE 10.4 mph - N/A   Clear
11:35 AM 33.8 °F 27.0 °F 5.2 °F 30% 30.05 in 10.0 mi SSE 8.1 mph - N/A   Clear
11:55 AM 34.3 °F 27.0 °F 4.5 °F 29% 30.03 in 10.0 mi South 9.2 mph - N/A   Clear
12:15 PM 34.5 °F 27.3 °F 3.0 °F 27% 30.01 in 10.0 mi South 9.2 mph - N/A   Clear
12:35 PM 34.7 °F 28.1 °F 3.0 °F 26% 30.00 in 10.0 mi SSE 8.1 mph - N/A   Clear
12:55 PM 35.6 °F 29.2 °F 2.3 °F 25% 30.00 in 10.0 mi South 8.1 mph - N/A   Clear
1:15 PM 35.4 °F 31.5 °F 2.1 °F 25% 29.98 in 10.0 mi South 4.6 mph - N/A   Clear
1:35 PM 35.4 °F 32.6 °F 1.9 °F 24% 29.97 in 10.0 mi SSE 3.5 mph - N/A   Clear
1:55 PM 36.0 °F 31.1 °F 2.8 °F 25% 29.97 in 10.0 mi South 5.8 mph - N/A   Clear
2:15 PM 36.5 °F 32.7 °F 2.7 °F 24% 29.96 in 10.0 mi SE 4.6 mph - N/A   Clear
2:35 PM 37.0 °F - 3.0 °F 24% 29.96 in 10.0 mi Calm Calm - N/A   Clear
2:55 PM 37.0 °F 34.5 °F 3.2 °F 24% 29.96 in 10.0 mi SE 3.5 mph - N/A   Clear
3:15 PM 36.9 °F 33.1 °F 3.6 °F 25% 29.96 in 10.0 mi SE 4.6 mph - N/A   Clear
3:35 PM 37.4 °F 33.8 °F 3.6 °F 24% 29.96 in 10.0 mi South 4.6 mph - N/A   Clear
3:55 PM 36.7 °F - 3.4 °F 25% 29.96 in 10.0 mi Calm Calm - N/A   Clear
4:15 PM 36.7 °F 31.2 °F 3.4 °F 25% 29.96 in 10.0 mi SE 6.9 mph - N/A   Clear
4:35 PM 36.7 °F 31.2 °F 3.7 °F 25% 29.97 in 10.0 mi SE 6.9 mph - N/A   Clear
4:55 PM 35.2 °F 31.2 °F 3.2 °F 26% 29.96 in 10.0 mi South 4.6 mph - N/A   Clear
5:15 PM 34.7 °F 30.6 °F 3.9 °F 27% 29.96 in 10.0 mi SSE 4.6 mph - N/A   Clear
5:35 PM 33.4 °F - 4.1 °F 29% 29.96 in 10.0 mi Calm Calm - N/A   Clear
5:55 PM 32.7 °F - 3.9 °F 30% 29.96 in 10.0 mi Calm Calm - N/A   Clear
6:15 PM 30.2 °F - 3.6 °F 32% 29.96 in 10.0 mi Calm Calm - N/A   Clear
6:35 PM 28.2 °F - 3.0 °F 34% 29.96 in 10.0 mi Calm Calm - N/A   Clear
6:55 PM 24.6 °F - 1.4 °F 37% 29.97 in 10.0 mi Calm Calm - N/A   Clear
7:15 PM 25.0 °F - 3.0 °F 39% 29.97 in 10.0 mi Calm Calm - N/A   Clear
7:35 PM 24.8 °F - 2.7 °F 39% 29.97 in 10.0 mi Calm Calm - N/A   Clear
7:55 PM 24.1 °F - 2.3 °F 39% 29.97 in 10.0 mi Calm Calm - N/A   Clear
8:15 PM 20.5 °F - 1.8 °F 44% 29.97 in 10.0 mi Calm Calm - N/A   Clear
8:35 PM 21.9 °F - 2.7 °F 43% 29.97 in 10.0 mi Calm Calm - N/A   Clear
8:55 PM 18.0 °F - 1.9 °F 50% 29.97 in 10.0 mi Calm Calm - N/A   Clear
9:15 PM 19.9 °F 14.9 °F 3.2 °F 48% 29.97 in 10.0 mi NW 3.5 mph - N/A   Clear
9:35 PM 23.7 °F - 3.7 °F 42% 29.97 in 10.0 mi Calm Calm - N/A   Clear
9:55 PM 19.6 °F - 3.2 °F 49% 29.98 in 10.0 mi Calm Calm - N/A   Clear
10:35 PM 20.7 °F - 4.3 °F 49% 29.97 in 10.0 mi Calm Calm - N/A   Overcast
10:55 PM 21.7 °F - 5.0 °F 49% 29.97 in 10.0 mi Calm Calm - N/A   Overcast
11:15 PM 23.7 °F 16.6 °F 5.4 °F 46% 29.97 in 10.0 mi NNW 5.8 mph - N/A   Mostly Cloudy
11:35 PM 23.4 °F 16.2 °F 5.4 °F 46% 29.97 in 10.0 mi NNW 5.8 mph - N/A   Scattered Clouds